When you browse on this site, cookies collect data to enhance your experience and personalize the content and advertising you see.
Visit our Privacy Policy to learn more. By continuing to use the site, you agree to this use of cookies and data.

Stündliche Wetter Caxhuacán

Heute, 4 Juli, Samstag

Zeit Temperatur Niederschläge Wind Luftdruck Luftfeuchtigkeit
00:00 +22°C° 0 mm 1 m/S 699 mmHg 88%
01:00 +21°C° 0 mm 1 m/S 698 mmHg 88%
02:00 +21°C° 0 mm 1 m/S 698 mmHg 87%
03:00 +21°C° 0 mm 1 m/S 698 mmHg 86%
04:00 +21°C° 0 mm 1 m/S 698 mmHg 85%
05:00 +21°C° 0 mm 1 m/S 698 mmHg 84%
06:00 +23°C° 0 mm 1 m/S 698 mmHg 78%
07:00 +25°C° 0 mm 1 m/S 699 mmHg 72%
08:00 +27°C° 0 mm 1 m/S 699 mmHg 66%
09:00 +28°C° 0.1 mm 1 m/S 699 mmHg 65%
10:00 +29°C° 0.1 mm 2 m/S 699 mmHg 64%
11:00 +29°C° 0.1 mm 2 m/S 699 mmHg 63%
12:00 +29°C° 0.8 mm 2 m/S 698 mmHg 67%
13:00 +28°C° 0.8 mm 2 m/S 698 mmHg 72%
14:00 +28°C° 0.8 mm 2 m/S 697 mmHg 76%
15:00 +27°C° 1.4 mm 1 m/S 697 mmHg 80%
16:00 +27°C° 1.4 mm 1 m/S 697 mmHg 84%
17:00 +26°C° 1.4 mm 1 m/S 697 mmHg 88%
18:00 +25°C° 0.3 mm 1 m/S 697 mmHg 89%
19:00 +24°C° 0.3 mm 1 m/S 697 mmHg 90%
20:00 +23°C° 0.3 mm 1 m/S 698 mmHg 92%
21:00 +23°C° 0.1 mm 1 m/S 698 mmHg 91%
22:00 +23°C° 0.1 mm 1 m/S 698 mmHg 90%
23:00 +23°C° 0.1 mm 1 m/S 698 mmHg 89%

Morgen, 5 Juli, Sonntag

Zeit Temperatur Niederschläge Wind Luftdruck Luftfeuchtigkeit
00:00 +22°C° 0 mm 1 m/S 697 mmHg 88%
01:00 +22°C° 0 mm 1 m/S 697 mmHg 87%
02:00 +22°C° 0 mm 1 m/S 696 mmHg 87%
03:00 +22°C° 0 mm 1 m/S 696 mmHg 85%
04:00 +22°C° 0 mm 1 m/S 697 mmHg 84%
05:00 +22°C° 0 mm 1 m/S 697 mmHg 83%
06:00 +23°C° 0 mm 1 m/S 697 mmHg 79%
07:00 +25°C° 0 mm 1 m/S 698 mmHg 75%
08:00 +27°C° 0 mm 1 m/S 698 mmHg 70%
09:00 +28°C° 0.1 mm 1 m/S 698 mmHg 68%
10:00 +29°C° 0.1 mm 2 m/S 698 mmHg 66%
11:00 +30°C° 0.1 mm 2 m/S 698 mmHg 65%
12:00 +30°C° 0.4 mm 2 m/S 697 mmHg 67%
13:00 +29°C° 0.4 mm 2 m/S 697 mmHg 70%
14:00 +29°C° 0.4 mm 1 m/S 696 mmHg 73%
15:00 +28°C° 0.3 mm 1 m/S 696 mmHg 76%
16:00 +28°C° 0.3 mm 1 m/S 696 mmHg 80%
17:00 +27°C° 0.3 mm 1 m/S 695 mmHg 83%
18:00 +26°C° 0.4 mm 1 m/S 696 mmHg 86%
19:00 +25°C° 0.4 mm 1 m/S 696 mmHg 90%
20:00 +22°C° 0.4 mm 0 m/S 697 mmHg 93%
21:00 +24°C° 0.4 mm 1 m/S 697 mmHg 92%
22:00 +23°C° 0.4 mm 1 m/S 697 mmHg 91%
23:00 +23°C° 0.4 mm 1 m/S 697 mmHg 90%

übermorgen, 6 Juli, Montag

Zeit Temperatur Niederschläge Wind Luftdruck Luftfeuchtigkeit
00:00 +23°C° 0 mm 1 m/S 696 mmHg 89%
01:00 +23°C° 0 mm 1 m/S 696 mmHg 88%
02:00 +23°C° 0 mm 1 m/S 696 mmHg 87%
03:00 +22°C° 0 mm 1 m/S 696 mmHg 86%
04:00 +22°C° 0 mm 1 m/S 696 mmHg 85%
05:00 +22°C° 0 mm 1 m/S 696 mmHg 83%
06:00 +24°C° 0 mm 1 m/S 697 mmHg 79%
07:00 +26°C° 0 mm 1 m/S 697 mmHg 75%
08:00 +27°C° 0 mm 1 m/S 698 mmHg 70%
09:00 +28°C° 0.2 mm 1 m/S 698 mmHg 70%
10:00 +29°C° 0.2 mm 2 m/S 698 mmHg 69%
11:00 +30°C° 0.2 mm 2 m/S 697 mmHg 68%
12:00 +30°C° 0.6 mm 2 m/S 697 mmHg 70%
13:00 +30°C° 0.6 mm 1 m/S 697 mmHg 71%
14:00 +30°C° 0.6 mm 1 m/S 696 mmHg 72%
15:00 +29°C° 1.2 mm 1 m/S 696 mmHg 77%
16:00 +28°C° 1.2 mm 1 m/S 696 mmHg 81%
17:00 +25°C° 1.2 mm 0 m/S 696 mmHg 85%
18:00 +26°C° 1.8 mm 1 m/S 696 mmHg 87%
19:00 +25°C° 1.8 mm 1 m/S 696 mmHg 89%
20:00 +24°C° 1.8 mm 1 m/S 697 mmHg 91%
21:00 +24°C° 1.5 mm 1 m/S 697 mmHg 90%
22:00 +24°C° 1.5 mm 1 m/S 697 mmHg 89%
23:00 +24°C° 1.5 mm 2 m/S 697 mmHg 88%

7 Juli, Dienstag

Zeit Temperatur Niederschläge Wind Luftdruck Luftfeuchtigkeit
00:00 +23°C° 0 mm 2 m/S 697 mmHg 86%
01:00 +23°C° 0 mm 2 m/S 697 mmHg 85%
02:00 +23°C° 0 mm 2 m/S 696 mmHg 83%
03:00 +23°C° 0 mm 2 m/S 697 mmHg 82%
04:00 +23°C° 0 mm 1 m/S 697 mmHg 80%
05:00 +24°C° 0 mm 1 m/S 697 mmHg 79%
06:00 +25°C° 0 mm 1 m/S 697 mmHg 75%
07:00 +26°C° 0 mm 1 m/S 698 mmHg 72%
08:00 +27°C° 0 mm 1 m/S 699 mmHg 68%
09:00 +28°C° 0.1 mm 1 m/S 699 mmHg 68%
10:00 +29°C° 0.1 mm 2 m/S 698 mmHg 68%
11:00 +30°C° 0.1 mm 2 m/S 698 mmHg 67%
12:00 +29°C° 0.7 mm 2 m/S 698 mmHg 72%
13:00 +29°C° 0.7 mm 1 m/S 697 mmHg 77%
14:00 +28°C° 0.7 mm 1 m/S 697 mmHg 82%
15:00 +27°C° 1.9 mm 1 m/S 697 mmHg 84%
16:00 +26°C° 1.9 mm 1 m/S 696 mmHg 86%
17:00 +26°C° 1.9 mm 1 m/S 696 mmHg 88%
18:00 +25°C° 0.2 mm 1 m/S 697 mmHg 88%
19:00 +24°C° 0.2 mm 1 m/S 697 mmHg 88%
20:00 +24°C° 0.2 mm 1 m/S 697 mmHg 87%
21:00 +24°C° 0 mm 1 m/S 697 mmHg 86%
22:00 +24°C° 0 mm 1 m/S 698 mmHg 84%
23:00 +24°C° 0 mm 1 m/S 698 mmHg 83%

8 Juli, Mittwoch

Zeit Temperatur Niederschläge Wind Luftdruck Luftfeuchtigkeit
00:00 +23°C° 0 mm 1 m/S 697 mmHg 81%
01:00 +23°C° 0 mm 1 m/S 697 mmHg 80%
02:00 +23°C° 0 mm 1 m/S 697 mmHg 79%
03:00 +23°C° 0 mm 1 m/S 697 mmHg 77%
04:00 +23°C° 0 mm 1 m/S 697 mmHg 76%
05:00 +23°C° 0 mm 1 m/S 697 mmHg 75%
06:00 +24°C° 0 mm 1 m/S 698 mmHg 73%
07:00 +25°C° 0 mm 1 m/S 698 mmHg 71%
08:00 +27°C° 0 mm 1 m/S 699 mmHg 70%
09:00 +28°C° 0 mm 1 m/S 699 mmHg 67%
10:00 +29°C° 0 mm 2 m/S 699 mmHg 65%
11:00 +30°C° 0 mm 2 m/S 698 mmHg 63%
12:00 +30°C° 0.2 mm 2 m/S 698 mmHg 66%
13:00 +30°C° 0.2 mm 2 m/S 697 mmHg 69%
14:00 +29°C° 0.2 mm 2 m/S 696 mmHg 72%
15:00 +29°C° 0.8 mm 1 m/S 696 mmHg 77%
16:00 +28°C° 0.8 mm 1 m/S 696 mmHg 82%
17:00 +25°C° 0.8 mm 0 m/S 696 mmHg 87%
18:00 +24°C° 0.1 mm 0 m/S 696 mmHg 88%
19:00 +23°C° 0.1 mm 0 m/S 697 mmHg 90%
20:00 +22°C° 0.1 mm 0 m/S 697 mmHg 92%
21:00 +22°C° 0.1 mm 0 m/S 697 mmHg 92%
22:00 +24°C° 0.1 mm 1 m/S 698 mmHg 92%
23:00 +24°C° 0.1 mm 1 m/S 698 mmHg 92%

9 Juli, Donnerstag

Zeit Temperatur Niederschläge Wind Luftdruck Luftfeuchtigkeit
00:00 +23°C° 0 mm 1 m/S 698 mmHg 91%
01:00 +23°C° 0 mm 1 m/S 697 mmHg 89%
02:00 +23°C° 0 mm 1 m/S 697 mmHg 87%
03:00 +23°C° 0 mm 1 m/S 697 mmHg 85%
04:00 +23°C° 0 mm 1 m/S 697 mmHg 83%
05:00 +23°C° 0 mm 1 m/S 697 mmHg 81%
06:00 +24°C° 0 mm 1 m/S 698 mmHg 78%
07:00 +25°C° 0 mm 1 m/S 698 mmHg 76%
08:00 +26°C° 0 mm 1 m/S 699 mmHg 74%
09:00 +27°C° 0 mm 1 m/S 699 mmHg 71%
10:00 +28°C° 0 mm 2 m/S 699 mmHg 69%
11:00 +29°C° 0 mm 2 m/S 699 mmHg 67%
12:00 +29°C° 0.4 mm 2 m/S 698 mmHg 71%
13:00 +29°C° 0.4 mm 2 m/S 697 mmHg 74%
14:00 +28°C° 0.4 mm 1 m/S 697 mmHg 78%
15:00 +28°C° 0.8 mm 1 m/S 697 mmHg 81%
16:00 +27°C° 0.8 mm 1 m/S 697 mmHg 84%
17:00 +25°C° 0.8 mm 0 m/S 697 mmHg 87%
18:00 +24°C° 0.1 mm 0 m/S 697 mmHg 89%
19:00 +23°C° 0.1 mm 0 m/S 698 mmHg 90%
20:00 +22°C° 0.1 mm 0 m/S 698 mmHg 92%
21:00 +22°C° 0.1 mm 0 m/S 698 mmHg 92%
22:00 +22°C° 0.1 mm 0 m/S 698 mmHg 93%
23:00 +21°C° 0.1 mm 0 m/S 699 mmHg 93%
Mehr zeigen